User: anonymous   Login
Location: Noordwijk
(52.2400°N, 4.4500°E)
Time: 07:10:15
(UTC+00:00)
Language:

CAS-4A - Orbit

View from above orbital plane
View from above orbital plane
View from above satellite
View from above satellite

Ground track
Ground track

The orbit data is extracted from the following two-line orbital elements,

1 42761U 17034D   22339.84733809  .00003726  00000-0  21676-3 0  9999
2 42761  43.0165 105.7220 0011761 295.9228 200.8500 15.13478147302316
Epoch (UTC): 05 December 2022 20:20:10
Eccentricity: 0.0011761
inclination: 43.0165°
perigee height: 517 km
apogee height: 534 km
right ascension of ascending node: 105.7220°
argument of perigee: 295.9228°
revolutions per day: 15.13478147
mean anomaly at epoch: 200.8500°
orbit number at epoch: 30231

The dashed part of the orbit path shows where the satellite is in the earth's shadow,  

DLR